Terug naar catalogus

STARLINK-36879

ActiefCommunicatieSSO
NORAD 67982·PAYLOAD·🇺🇸 United States

Gelanceerd Feb 25, 2026 vanaf Vandenberg Space Force Base

Loading…

Volgende Passages (komende 24 uur)

TLE

VersSource: CelesTrak SupGP

Epoch: Sep 15, 2026, 03:47 UTC

1 67982C 26038X   26258.15812500 -.00058403  00000+0 -18131-2 0  2581
2 67982  97.2842 266.6376 0001500  94.7332 103.2263 15.33465341    19

Volg STARLINK-36879 in realtime met AllMySat

Download on the App Store